User: anonymous   Login
Location: ???? ?????
(30.0052°N, 31.2891°E)
Time: 23:00:55
(UTC+00:00)
Language:

Iridium 16 - Orbit

View from above orbital plane
View from above orbital plane
View from above satellite
View from above satellite

Ground track
Ground track

The orbit data is extracted from the following two-line orbital elements,

1 24841U 97030F   24151.56602702  .00000638  00000-0  20500-3 0  9996
2 24841  86.4049   6.0034 0000881 163.1773 196.9454 14.37910516412260
Epoch (UTC): 30 May 2024 13:35:04
Eccentricity: 0.0000881
inclination: 86.4049°
perigee height: 765 km
apogee height: 766 km
right ascension of ascending node: 6.0034°
argument of perigee: 163.1773°
revolutions per day: 14.37910516
mean anomaly at epoch: 196.9454°
orbit number at epoch: 41226

The dashed part of the orbit path shows where the satellite is in the earth's shadow,  

DLR